This is the latest recevied weather packets stored in our database for station/object HB9FHL-13. If no packets are shown the sender has not sent any weather packets the latest 10 day(s).
| Time | Temp. | Humidity | Pressure | Rain* | Wind** | Luminosity | Snow |
|---|---|---|---|---|---|---|---|
| 1777996306 | 15.56° C | - | 1012.2 hPa | 0 mm | - | - | - |
| 1777996007 | 14.44° C | - | 1009 hPa | 0 mm | - | - | - |
| 1777995707 | 14.44° C | - | 1007 hPa | 0 mm | - | - | - |
| 1777995406 | 13.89° C | - | 1008.6 hPa | 0 mm | - | - | - |
| 1777995104 | 14.44° C | - | 1000.7 hPa | 0 mm | - | - | - |
| 1777994803 | 14.44° C | - | 1007.7 hPa | 0 mm | - | - | - |
| 1777994503 | 16.11° C | - | 1008 hPa | 0 mm | - | - | - |
| 1777994204 | 15° C | - | 1005.8 hPa | 0 mm | - | - | - |
| 1777993902 | 15° C | - | 1008.9 hPa | 0 mm | - | - | - |
| 1777993600 | 15° C | - | 1002.2 hPa | 0 mm | - | - | - |
| 1777993298 | 15.56° C | - | 999.8 hPa | 0 mm | - | - | - |
| 1777992998 | 15° C | - | 1005.4 hPa | 0 mm | - | - | - |
| 1777992697 | 15.56° C | - | 1008.5 hPa | 0 mm | - | - | - |
| 1777992397 | 16.67° C | - | 1007.6 hPa | 0 mm | - | - | - |
| 1777992096 | 16.11° C | - | 1012.5 hPa | 0 mm | - | - | - |
| 1777991796 | 16.11° C | - | 1009.5 hPa | 0 mm | - | - | - |
| 1777991494 | 15.56° C | - | 1007.5 hPa | 0 mm | - | - | - |
| 1777991194 | 15.56° C | - | 1014.2 hPa | 0 mm | - | - | - |
| 1777990892 | 15.56° C | - | 1002.7 hPa | 0 mm | - | - | - |
| 1777990590 | 16.11° C | - | 1007.6 hPa | 0 mm | - | - | - |
| 1777989989 | 15° C | - | 1005.6 hPa | 0 mm | - | - | - |
| 1777989689 | 15.56° C | - | 1005 hPa | 0 mm | - | - | - |
| 1777989388 | 15° C | - | 1007 hPa | 0 mm | - | - | - |
| 1777989088 | 15° C | - | 1004.4 hPa | 0 mm | - | - | - |
| 1777988787 | 15° C | - | 1007.7 hPa | 0 mm | - | - | - |
* Rain since midnight (hover to see other rain measurements)
** Current wind speed in m/s (hover to see current wind gust speed)